Location: Goettingen
(51.5300°N, 9.9433°E)
Time: 11:35:11
(UTC+02:00)

ISS - Pass Details

Date: 10 May 2025
Orbit: 416 x 419 km, 51.6° (Epoch: 18 May)

Event Time Altitude Azimuth Distance (km) Brightness Sun altitude
Rises 01:23:24 0° 273° (W) 2,359 0.1 -20.8°
Enters shadow 01:24:52 - 273° (W) 1,754 -0.6 -20.8°
Exits shadow 01:32:42 - 93° (E) 1,692 -0.7 -20.7°
Sets 01:34:19 0° 94° (E) 2,358 0.1 -20.7°
